Regional Weather Roundup
Issued by NWS

Home | Current Version | Previous Version | Text Only | Print | Product List | Glossary Off
Versions: 1 2 3 4 5 6 7 8 9 10 11 12 13 14 15 16 17 18 19 20 21 22 23 24 25 26 27

000
ASUS45 KCYS 261010
RWRWY

WYOMING REGIONAL WEATHER ROUNDUP
NATIONAL WEATHER SERVICE CHEYENNE WY
400 AM MDT FRI MAY 26 2017

NOTE:  "FAIR" INDICATES FEW OR NO CLOUDS BELOW 12,000 FEET
WITH NO SIGNIFICANT WEATHER AND/OR OBSTRUCTIONS TO VISIBILITY.

WYZ001-261100-
YELLOWSTONE NATIONAL PARK

CITY           SKY/WX    TMP DP  RH WIND       PRES   REMARKS
LK YELLOWSTONE   N/A     35  27  72 CALM      29.95R
W YELLOWSTONE  NOT AVBL

$$
WYZ002>013-054>058-071-098>099-261100-
NORTHERN WYOMING

CITY           SKY/WX    TMP DP  RH WIND       PRES   REMARKS
JACKSON        FAIR      36  30  80 N7        29.89R WCI  30
CODY           MOCLDY    44  33  65 CALM      29.94S
GREYBULL       CLOUDY    50  29  44 W7        29.89R
WORLAND        MOCLDY    46  37  71 SW5       29.91S
SHERIDAN       FAIR      36  31  82 S3        29.91S
BUFFALO        CLOUDY    45  36  70 S10       29.93S
GILLETTE       FAIR      33  31  92 S5        29.92R WCI  29
HULETT         FAIR      37  34  87 SW9       29.92R WCI  31
NEWCASTLE      FAIR      39  32  75 N9        29.93S WCI  33

$$
WYZ014>020-022>026-101>103-261100-
CENTRAL WYOMING

CITY           SKY/WX    TMP DP  RH WIND       PRES   REMARKS
BIG PINEY      MOCLDY    35  31  85 SW6       29.93R WCI  30
PINEDALE       FAIR      30  27  86 CALM      29.93S
DUBOIS         CLOUDY    36  30  80 E9        29.93R WCI  29
LANDER         CLOUDY    42  36  79 W7        29.92S
RIVERTON       FAIR      41  36  82 E6        29.94R
CASPER         CLOUDY    44  38  79 E6        29.94S
DOUGLAS        CLOUDY    46  41  82 CALM      29.95S

$$
WYZ021-027>030-104>119-261100-
SOUTHERN WYOMING

CITY           SKY/WX    TMP DP  RH WIND       PRES   REMARKS
EVANSTON       CLOUDY    45  26  47 E10       29.83F
KEMMERER         N/A     39  30  70 N17       29.90S WCI  30
ROCK SPRINGS   FAIR      37  32  82 E7        29.91F WCI  32
DIXON            N/A     38  34  85 NE5       29.96R WCI  35
RAWLINS          N/A     34  30  85 N7        29.94S WCI  28
SARATOGA       FAIR      37  36  93 SE7       29.95R WCI  32
LARAMIE        FAIR      33  30  88 SE8       29.96S WCI  26
CHEYENNE       FAIR      38  33  82 NW8       29.97S WCI  32
TORRINGTON     FAIR      44  36  73 W3        29.94R

$$




USA.gov is the U.S. government's official web portal to all federal, state and local government web resources and services.